Temp
-4 -4 -5 -5 -5 -5 -5 -5 -4 -4 -5 -5 -5 -5 -5 -6 -6 -6 -6 -7 -7 -7 -7 -8 -8 -8 -8 -8 -8 -8 -8 -8 -9 -9 -9 -9 -9 -9 -9 -9 -10 -10 -10
-5 -4 -5 -5 -5 -5 -5 -5 -4 -5 -5 -5 -5 -5 -5 -6 -6 -6 -6 -7 -8 -8 -8 -8 -8 -8 -8 -8 -8 -8 -9 -9 -9 -9 -9 -9 -9 -9 -9 -9 -9 -9 -10
-5 -5 -5 -5 -5 -5 -5 -4 -5 -5 -5 -5 -5 -6 -6 -6 -6 -6 -6 -7 -7 -7 -8 -8 -7 -8 -7 -7 -8 -8 -8 -8 -8 -9 -9 -9 -9 -9 -9 -9 -9 -9 -9
-5 -5 -5 -5 -5 -5 -5 -5 -5 -5 -5 -5 -5 -5 -6 -6 -5 -6 -6 -6 -6 -7 -7 -7 -7 -7 -7 -7 -7 -7 -7 -8 -8 -8 -8 -8 -9 -9 -9 -9 -9 -9 -9
-5 -5 -5 -5 -5 -5 -5 -5 -5 -5 -5 -5 -5 -6 -6 -6 -6 -6 -6 -5 -5 -6 -6 -6 -6 -6 -6 -7 -7 -8 -8 -8 -8 -8 -8 -8 -9 -9 -9 -9 -9 -9 -9
-5 -5 -5 -5 -6 -6 -6 -6 -5 -5 -5 -6 -6 -6 -6 -7 -7 -6 -6 -6 -5 -5 -6 -6 -7 -7 -7 -7 -7 -7 -8 -8 -8 -8 -8 -9 -9 -9 -10 -9 -9 -9 -9
-6 -5 -5 -6 -6 -6 -6 -6 -6 -6 -6 -6 -6 -6 -6 -7 -7 -7 -7 -6 -6 -6 -7 -7 -7 -7 -8 -8 -8 -8 -8 -9 -8 -8 -8 -8 -8 -8 -9 -9 -9 -9 -9
-7 -7 -6 -6 -7 -7 -6 -6 -6 -6 -6 -6 -6 -7 -7 -7 -7 -7 -7 -7 -7 -7 -7 -7 -8 -8 -8 -8 -8 -8 -9 -9 -9 -9 -8 -8 -8 -8 -8 -9 -9 -9 -9
-8 -8 -8 -7 -7 -7 -7 -7 -7 -7 -7 -7 -7 -8 -8 -8 -8 -8 -6 -7 -7 -8 -7 -7 -7 -8 -8 -8 -7 -8 -8 -9 -9 -9 -9 -9 -9 -9 -9 -9 -9 -9 -8
-8 -8 -8 -8 -8 -8 -8 -7 -7 -7 -8 -8 -8 -8 -8 -8 -8 -8 -8 -7 -7 -7 -8 -7 -7 -7 -7 -7 -7 -8 -8 -9 -8 -9 -9 -9 -9 -9 -9 -9 -9 -9 -8
-8 -8 -8 -8 -8 -8 -8 -8 -7 -8 -8 -8 -8 -8 -8 -8 -8 -8 -8 -7 -7 -7 -7 -7 -8 -8 -7 -7 -8 -8 -8 -9 -9 -8 -9 -9 -9 -9 -9 -9 -9 -9 -9
-9 -8 -8 -8 -8 -8 -7 -8 -7 -8 -8 -8 -8 -8 -8 -8 -8 -8 -8 -8 -8 -7 -7 -7 -7 -7 -7 -7 -8 -8 -8 -7 -7 -8 -8 -7 -8 -8 -8 -8 -8 -8 -8
-8 -8 -8 -8 -8 -7 -8 -8 -8 -8 -8 -8 -8 -8 -8 -8 -8 -8 -8 -8 -8 -8 -8 -7 -7 -7 -7 -7 -8 -8 -8 -8 -8 -8 -7 -8 -8 -8 -7 -7 -7 -7 -6
-8 -8 -8 -8 -8 -8 -7 -7 -8 -8 -8 -8 -8 -8 -8 -8 -8 -8 -8 -7 -7 -7 -7 -6 -7 -7 -7 -7 -7 -7 -8 -8 -8 -8 -8 -8 -7 -7 -6 -6 -6 -6 -6
-6 -7 -7 -7 -7 -7 -7 -7 -8 -8 -7 -7 -7 -7 -7 -7 -7 -6 -6 -6 -5 -5 -5 -5 -6 -6 -6 -6 -7 -7 -8 -7 -7 -7 -8 -8 -8 -7 -6 -6 -6 -6 -5
-6 -6 -6 -6 -7 -6 -7 -7 -7 -7 -7 -6 -6 -6 -6 -6 -6 -6 -5 -5 -5 -5 -5 -5 -5 -6 -6 -6 -7 -7 -7 -7 -7 -7 -7 -7 -7 -7 -6 -6 -6 -5 -5
-7 -7 -6 -6 -6 -6 -6 -6 -6 -6 -6 -6 -6 -5 -5 -5 -5 -5 -5 -5 -5 -5 -5 -5 -5 -6 -6 -7 -7 -7 -7 -7 -7 -7 -7 -7 -7 -7 -6 -6 -6 -6 -5
-7 -6 -6 -6 -6 -6 -6 -6 -6 -5 -5 -5 -5 -5 -5 -5 -5 -5 -5 -5 -5 -5 -5 -5 -5 -5 -6 -7 -7 -7 -7 -7 -7 -7 -7 -7 -7 -7 -6 -6 -6 -6 -5
-6 -6 -6 -6 -6 -6 -6 -6 -5 -5 -5 -5 -5 -5 -5 -5 -5 -5 -5 -5 -5 -5 -5 -5 -6 -6 -6 -6 -7 -6 -7 -7 -7 -7 -7 -7 -7 -7 -6 -6 -6 -6 -6
-6 -6 -6 -6 -6 -6 -6 -6 -6 -5 -5 -5 -5 -5 -5 -5 -5 -5 -5 -5 -5 -5 -5 -6 -6 -6 -6 -7 -7 -7 -7 -7 -7 -7 -7 -8 -7 -7 -7 -7 -7 -7 -7
-7 -7 -6 -6 -6 -7 -6 -6 -6 -6 -5 -5 -6 -5 -5 -5 -5 -5 -6 -6 -6 -6 -6 -6 -7 -7 -7 -7 -7 -7 -7 -7 -7 -7 -7 -8 -8 -7 -8 -7 -8 -8 -8
-7 -7 -7 -7 -7 -7 -7 -7 -6 -6 -6 -6 -6 -6 -6 -6 -6 -6 -6 -6 -6 -6 -7 -7 -7 -7 -8 -8 -8 -7 -7 -7 -7 -7 -8 -8 -8 -8 -8 -8 -9 -9 -9
-7 -7 -7 -7 -7 -7 -7 -7 -7 -6 -6 -6 -6 -6 -6 -6 -6 -6 -7 -7 -7 -7 -7 -7 -7 -7 -7 -8 -8 -8 -8 -8 -8 -7 -8 -8 -9 -8 -9 -9 -9 -10 -10
-8 -7 -7 -7 -7 -8 -8 -8 -7 -7 -7 -6 -6 -6 -6 -6 -6 -6 -6 -7 -7 -7 -7 -7 -7 -8 -8 -8 -8 -8 -8 -8 -8 -8 -9 -9 -9 -9 -9 -9 -9 -10 -10
-9 -8 -8 -8 -8 -8 -8 -8 -8 -8 -7 -7 -7 -7 -7 -7 -7 -7 -7 -7 -7 -7 -8 -8 -9 -9 -9 -8 -8 -8 -8 -9 -9 -9 -9 -9 -9 -9 -10 -10 -9 -10 -10
-9 -9 -9 -9 -9 -8 -7 -7 -7 -7 -7 -7 -7 -7 -7 -7 -7 -7 -8 -8 -8 -8 -9 -9 -9 -9 -9 -9 -8 -8 -9 -9 -10 -10 -10 -10 -10 -9 -11 -10 -10 -11 -11
Height
5899 5903 5908 5913 5917 5921 5924 5926 5929 5931 5933 5934 5935 5936 5937 5937 5937 5938 5939 5939 5939 5939 5939 5940 5940 5941 5942 5943 5942 5942 5942 5942 5941 5941 5939 5938 5936 5935 5933 5931 5928 5926 5923
5897 5901 5906 5910 5915 5918 5921 5924 5926 5927 5929 5930 5932 5933 5934 5935 5935 5935 5936 5936 5936 5936 5937 5937 5938 5938 5939 5940 5941 5942 5942 5940 5938 5938 5937 5936 5934 5932 5929 5927 5925 5923 5920
5895 5899 5903 5907 5912 5916 5919 5921 5923 5925 5926 5926 5928 5929 5930 5932 5932 5932 5933 5934 5934 5934 5935 5935 5935 5936 5936 5938 5939 5939 5939 5938 5937 5937 5936 5934 5932 5929 5926 5922 5920 5917 5915
5893 5896 5900 5905 5909 5913 5916 5919 5921 5922 5924 5924 5925 5926 5927 5929 5930 5930 5930 5930 5930 5931 5932 5932 5933 5934 5935 5935 5935 5935 5935 5933 5933 5933 5932 5930 5928 5925 5922 5919 5916 5913 5911
5890 5894 5898 5902 5905 5909 5913 5916 5918 5920 5921 5922 5924 5925 5926 5927 5928 5928 5928 5927 5928 5929 5930 5931 5932 5933 5934 5934 5934 5933 5933 5932 5931 5930 5929 5926 5924 5920 5917 5914 5910 5907 5906
5886 5890 5894 5899 5903 5907 5910 5914 5916 5918 5919 5921 5923 5924 5925 5926 5926 5927 5927 5927 5928 5929 5929 5930 5931 5932 5932 5932 5931 5931 5931 5929 5928 5926 5925 5923 5921 5917 5912 5907 5905 5900 5900
5882 5886 5891 5896 5901 5905 5908 5912 5914 5917 5918 5920 5921 5922 5923 5924 5925 5926 5926 5927 5928 5928 5929 5929 5929 5929 5929 5929 5928 5927 5927 5925 5923 5921 5919 5917 5916 5912 5907 5903 5898 5895 5892
5877 5883 5889 5894 5898 5902 5906 5909 5912 5915 5916 5918 5919 5920 5921 5922 5923 5924 5925 5926 5927 5927 5927 5928 5927 5927 5927 5925 5923 5922 5921 5920 5918 5914 5911 5912 5908 5904 5899 5894 5890 5884 5882
5875 5880 5885 5890 5895 5899 5903 5906 5908 5911 5913 5915 5916 5917 5919 5919 5920 5921 5921 5923 5924 5924 5924 5924 5924 5923 5922 5919 5918 5917 5917 5916 5911 5908 5905 5902 5899 5897 5892 5883 5880 5871 5867
5873 5878 5882 5886 5889 5894 5897 5900 5902 5906 5908 5910 5912 5914 5915 5917 5917 5917 5917 5918 5921 5920 5920 5921 5920 5919 5917 5916 5913 5912 5911 5910 5905 5904 5901 5897 5893 5890 5885 5876 5869 5861 5857
5869 5873 5877 5880 5885 5888 5891 5894 5897 5900 5903 5906 5908 5909 5911 5913 5913 5913 5912 5913 5914 5914 5915 5915 5914 5913 5912 5911 5909 5908 5906 5902 5898 5895 5894 5892 5889 5885 5879 5870 5861 5849 5842
5862 5867 5873 5877 5880 5883 5885 5889 5892 5895 5897 5900 5901 5903 5905 5907 5908 5908 5907 5906 5907 5907 5909 5908 5908 5907 5905 5904 5903 5902 5898 5895 5892 5888 5885 5882 5877 5872 5867 5862 5856 5845 5833
5856 5861 5866 5871 5873 5875 5877 5881 5885 5887 5890 5892 5894 5896 5898 5898 5899 5899 5900 5900 5900 5900 5901 5901 5900 5899 5898 5897 5895 5893 5889 5886 5882 5877 5874 5871 5865 5859 5852 5846 5841 5832 5827
5847 5852 5856 5860 5863 5865 5867 5870 5873 5877 5880 5882 5885 5887 5887 5888 5890 5890 5889 5890 5890 5890 5891 5891 5891 5890 5889 5888 5887 5884 5880 5876 5871 5866 5863 5859 5854 5848 5840 5831 5823 5816 5811
5839 5843 5846 5850 5854 5857 5860 5862 5865 5868 5870 5872 5875 5876 5877 5879 5881 5880 5880 5880 5880 5881 5880 5881 5881 5880 5879 5878 5877 5875 5871 5866 5860 5856 5851 5846 5842 5836 5829 5821 5813 5805 5796
5828 5832 5836 5840 5844 5848 5850 5853 5855 5858 5860 5863 5865 5867 5868 5870 5871 5871 5871 5871 5871 5870 5871 5871 5871 5870 5869 5868 5867 5863 5859 5855 5851 5847 5841 5835 5829 5823 5816 5809 5802 5794 5785
5818 5823 5827 5830 5833 5837 5840 5842 5845 5848 5850 5852 5854 5856 5858 5860 5860 5861 5861 5861 5861 5861 5861 5861 5860 5859 5858 5857 5855 5851 5847 5844 5841 5836 5831 5825 5818 5812 5804 5797 5791 5783 5775
5810 5814 5817 5820 5823 5826 5829 5831 5833 5836 5839 5841 5843 5846 5847 5848 5848 5849 5850 5851 5851 5850 5850 5849 5848 5847 5846 5844 5842 5839 5836 5832 5828 5823 5818 5813 5806 5800 5793 5787 5780 5772 5765
5800 5804 5807 5810 5813 5817 5819 5822 5824 5826 5828 5831 5833 5834 5835 5836 5837 5838 5838 5838 5839 5838 5837 5837 5836 5835 5833 5831 5829 5826 5823 5819 5815 5810 5806 5801 5795 5789 5784 5777 5770 5763 5757
5788 5793 5797 5800 5803 5805 5808 5811 5813 5816 5818 5820 5822 5823 5823 5824 5825 5825 5825 5825 5825 5825 5824 5823 5822 5821 5819 5817 5815 5813 5809 5806 5802 5798 5794 5791 5785 5779 5773 5767 5762 5755 5749
5776 5779 5783 5788 5791 5793 5795 5798 5800 5802 5804 5805 5808 5809 5810 5810 5811 5812 5812 5812 5812 5810 5808 5807 5807 5806 5804 5803 5801 5799 5796 5793 5789 5786 5782 5778 5775 5769 5763 5758 5752 5747 5744
5762 5766 5769 5773 5777 5780 5783 5785 5786 5788 5790 5792 5794 5795 5796 5796 5797 5797 5797 5797 5796 5795 5794 5793 5792 5791 5790 5787 5786 5785 5782 5779 5775 5772 5768 5766 5763 5756 5751 5747 5742 5739 5738
5747 5752 5755 5759 5763 5767 5769 5772 5774 5775 5776 5777 5778 5779 5780 5780 5781 5781 5781 5780 5780 5779 5778 5777 5776 5775 5774 5773 5772 5770 5767 5764 5760 5756 5754 5751 5748 5745 5741 5736 5733 5731 5731
5734 5738 5741 5744 5747 5750 5753 5755 5756 5758 5760 5760 5761 5762 5762 5763 5763 5763 5763 5762 5762 5762 5762 5761 5760 5759 5758 5757 5756 5754 5750 5746 5744 5742 5740 5736 5732 5730 5728 5725 5723 5721 5720
5718 5722 5725 5729 5731 5733 5735 5738 5741 5741 5741 5742 5743 5743 5743 5743 5744 5744 5744 5744 5744 5743 5743 5742 5742 5742 5742 5740 5737 5734 5732 5730 5729 5727 5723 5719 5717 5715 5713 5711 5711 5709 5709
5701 5706 5709 5713 5715 5716 5717 5718 5719 5721 5722 5721 5723 5723 5723 5723 5723 5724 5724 5723 5723 5723 5722 5724 5724 5722 5722 5720 5718 5716 5714 5713 5711 5709 5706 5704 5702 5698 5698 5697 5697 5696 5695
Wind_Speed
25 25 23 18 16 16 15 13 13 13 14 16 16 16 14 14 13 13 13 11 10 9 8 7 5 3 3 5 6 7 8 7 6 6 7 9 11 15 18 18 18 21 23
24 24 22 20 18 17 16 16 15 16 16 18 17 17 16 16 16 17 13 13 12 11 10 7 6 6 3 1 3 5 7 9 10 10 11 15 18 21 22 25 25 25 26
25 23 23 22 20 18 17 16 16 14 13 12 13 16 16 16 15 15 13 13 14 13 10 8 5 6 7 6 6 5 6 7 10 13 16 18 22 25 26 29 30 30 31
26 25 25 22 21 19 17 16 14 12 11 12 10 7 8 9 10 11 11 11 11 9 6 5 5 5 6 6 7 9 10 13 15 16 20 23 23 26 28 31 31 34 35
24 24 23 25 23 22 19 16 13 12 14 13 9 9 10 9 9 6 5 5 7 7 5 3 2 1 2 5 5 7 9 13 15 17 18 23 26 28 30 34 37 40 38
24 25 26 24 23 22 19 15 14 15 14 13 13 12 10 8 8 7 7 8 6 4 5 3 3 3 3 6 9 10 12 15 17 19 21 23 26 31 35 32 34 37 35
27 28 27 26 26 23 20 17 17 16 15 14 12 10 10 10 8 8 9 8 6 4 5 5 5 6 7 11 14 16 16 19 22 24 26 27 29 32 34 37 40 43 42
31 30 28 27 25 23 21 19 18 17 16 14 10 6 3 6 11 12 11 10 10 10 10 11 11 13 14 19 21 22 24 25 27 31 33 29 37 38 41 44 45 49 48
30 30 29 28 27 25 22 21 21 19 17 15 14 12 9 9 11 13 18 17 15 14 15 16 16 17 20 23 24 24 25 23 31 34 36 38 40 41 47 52 53 59 62
27 26 27 26 28 28 26 26 25 24 21 20 17 15 13 12 14 16 17 19 17 20 21 21 21 19 22 25 26 30 31 30 34 33 36 39 43 47 49 54 58 60 59
28 28 32 33 30 32 32 30 27 27 26 23 22 21 19 19 20 21 22 21 20 23 23 24 26 27 27 30 32 34 33 34 37 38 39 43 45 47 48 53 58 64 64
28 33 34 36 35 36 36 34 34 32 31 28 28 27 25 26 26 28 30 30 29 28 26 28 31 33 35 35 35 37 39 40 42 44 45 47 48 47 49 51 51 56 62
33 33 36 38 41 42 38 37 38 37 37 36 35 34 33 35 34 34 36 36 37 34 33 32 34 35 37 39 40 42 44 44 47 49 50 50 50 52 57 57 52 50 48
39 45 48 47 45 43 44 44 48 46 44 44 43 43 45 44 42 42 41 39 39 39 37 36 38 39 41 42 42 43 45 48 51 53 53 51 54 55 56 56 47 48 47
39 44 47 50 51 49 46 47 48 49 50 49 50 50 50 47 44 42 41 39 39 39 38 37 40 41 42 43 43 44 47 51 53 55 55 56 56 54 52 48 44 46 52
34 37 46 50 51 52 53 54 55 55 56 52 49 46 45 44 42 42 41 39 39 41 40 39 40 41 42 44 45 47 50 52 54 56 58 61 61 56 53 47 42 42 49
31 32 32 39 44 47 51 53 56 52 45 43 43 42 39 37 39 41 42 42 42 43 42 41 42 43 44 45 47 49 52 54 56 58 60 64 64 58 54 53 44 39 46
37 36 36 36 38 39 42 46 47 45 42 40 40 40 41 42 44 43 43 43 44 44 44 44 46 47 47 49 49 51 55 57 59 62 63 66 65 60 57 54 45 42 38
43 41 40 40 38 38 40 42 45 46 46 45 44 45 46 47 45 45 46 47 46 47 48 49 50 50 52 52 52 55 58 59 63 63 65 66 64 59 58 53 43 37 33
51 48 44 44 42 42 41 41 42 43 44 44 44 45 46 46 47 47 49 49 49 50 52 54 53 52 53 55 57 59 61 65 66 66 66 65 56 54 54 49 39 32 29
55 54 52 48 45 43 44 44 45 46 47 47 47 48 50 52 52 52 53 52 54 55 56 56 54 55 58 59 60 60 65 68 68 68 68 64 57 54 49 46 38 33 32
52 53 54 54 53 52 53 52 51 52 53 53 54 56 56 56 57 57 57 57 58 60 59 59 60 61 62 63 63 66 67 67 67 67 67 62 57 52 46 42 35 34 34
58 56 57 55 55 55 55 56 57 58 58 59 59 59 60 62 62 62 62 62 63 63 65 66 66 65 67 68 68 67 67 67 67 68 68 63 56 53 45 41 36 33 36
57 57 59 60 56 54 55 56 58 59 61 63 64 64 64 64 64 66 66 65 66 67 69 69 69 71 71 70 70 70 69 70 69 71 65 56 54 53 45 40 40 39 37
62 58 55 57 60 62 64 65 65 67 68 69 69 70 71 71 72 72 72 72 73 73 73 73 73 73 74 72 72 71 74 76 76 63 57 55 53 48 43 41 41 41 40
68 71 74 73 73 74 75 74 74 73 73 74 74 74 74 73 73 75 75 76 76 75 77 77 79 76 79 79 77 78 78 73 68 63 61 64 57 47 42 40 41 41 41
Wind_Direction
188 186 187 197 202 196 200 208 217 224 230 237 244 249 254 260 267 272 276 285 290 294 296 297 290 296 337 14 7 7 13 14 26 15 357 350 348 349 346 341 341 343 344
192 188 187 195 202 199 207 221 233 239 248 251 250 250 250 250 259 271 271 277 281 285 296 284 268 260 266 330 350 6 1 353 347 339 333 335 335 334 333 332 338 338 339
192 191 194 196 199 205 215 229 239 239 237 244 244 242 243 248 252 260 269 273 272 275 276 277 270 263 278 330 352 342 330 328 326 324 324 323 325 326 326 326 332 333 335
198 194 197 195 196 202 205 209 208 203 207 223 224 219 225 234 244 254 265 265 253 260 260 241 252 245 288 303 305 311 320 318 321 325 326 326 329 325 323 319 323 322 327
196 198 197 195 193 189 193 196 194 199 205 216 205 187 195 213 229 238 234 218 191 171 169 182 227 206 276 291 295 296 313 315 326 323 323 320 320 314 312 313 316 318 322
195 197 196 190 187 185 189 192 195 199 192 186 184 180 183 194 196 187 155 149 147 148 143 163 178 217 288 305 301 303 324 318 303 309 315 322 322 315 299 310 320 319 323
196 196 187 185 183 185 189 189 193 199 203 195 187 184 197 208 193 186 164 159 172 184 210 231 263 279 289 288 289 296 304 307 307 302 306 312 316 313 317 314 313 314 314
186 188 185 184 185 190 191 195 201 201 200 204 202 213 226 240 224 214 202 194 210 225 241 250 260 270 275 280 286 294 301 305 306 304 303 307 308 310 314 313 312 310 309
189 182 182 186 190 191 190 196 206 204 204 208 219 223 227 252 263 249 227 215 222 242 254 267 271 271 278 282 288 295 302 306 300 299 302 309 309 314 314 311 311 306 306
204 192 186 196 199 193 196 201 207 207 211 213 223 229 234 246 263 269 270 270 259 253 258 267 277 286 284 288 299 302 306 301 296 296 301 306 308 310 309 310 308 305 305
210 210 198 203 203 202 205 205 212 217 220 221 222 231 242 253 261 268 276 273 277 273 279 282 284 286 290 289 292 296 297 292 293 298 303 305 305 306 305 304 304 301 299
225 217 210 213 211 211 214 209 218 225 229 230 232 232 242 244 256 264 269 275 277 278 284 284 286 288 291 291 290 292 293 297 298 299 304 310 313 312 310 307 304 298 300
214 213 216 221 219 218 223 218 229 233 235 237 240 244 246 249 252 257 259 266 274 275 276 279 283 288 291 294 290 287 293 296 299 305 310 317 317 315 315 313 311 304 305
209 215 219 221 229 236 217 220 228 231 235 240 243 246 250 250 252 254 257 261 263 266 271 275 280 283 285 287 291 292 293 298 305 308 313 316 319 318 317 316 311 307 308
218 221 223 224 226 230 236 233 232 231 235 241 246 251 255 259 259 260 264 266 268 269 270 271 275 278 283 289 292 293 295 301 305 309 312 317 320 319 318 319 313 309 308
220 224 227 227 229 231 231 233 237 241 246 253 254 254 254 255 256 258 259 262 265 268 269 271 275 279 283 286 288 292 296 299 303 307 311 315 321 321 319 317 314 310 310
241 238 235 230 230 233 235 238 242 249 253 252 253 254 255 254 255 256 259 262 265 268 271 274 276 279 283 285 287 290 292 297 302 306 308 313 319 321 320 314 316 314 312
240 237 235 236 237 238 240 243 250 256 256 255 255 255 255 258 260 263 266 269 272 273 274 274 275 279 282 283 287 289 293 297 301 304 308 313 317 321 322 316 318 318 312
244 242 242 240 239 239 240 243 246 248 250 252 253 255 257 261 266 268 270 271 272 273 274 275 278 280 281 284 286 289 292 296 301 304 309 313 316 321 322 314 315 318 312
246 241 240 241 242 244 244 246 249 252 254 256 257 259 262 264 266 268 269 270 272 274 276 277 278 281 283 283 285 290 295 299 300 305 309 313 318 316 314 311 317 318 310
247 245 241 240 244 249 252 252 252 253 254 255 258 260 263 264 265 266 268 270 273 274 274 276 278 280 282 286 288 293 296 297 300 303 307 312 315 308 313 312 317 316 313
246 245 248 250 248 249 251 253 255 257 258 261 262 262 263 264 267 268 269 271 272 274 275 277 279 282 284 285 289 292 293 297 299 303 306 311 310 308 306 307 308 308 307
250 250 250 254 256 256 256 255 255 257 259 261 262 264 266 267 268 269 270 271 272 273 275 277 279 279 282 286 289 291 293 296 299 301 303 304 300 307 303 298 296 295 296
253 255 253 252 252 254 256 257 258 259 261 262 262 263 264 264 266 267 267 267 269 272 275 276 277 280 285 286 289 291 295 296 297 297 301 303 300 300 299 293 291 287 283
249 246 247 250 251 252 255 258 259 262 263 263 264 265 265 266 267 268 268 270 271 273 273 274 278 282 285 287 290 292 294 294 294 294 294 293 298 296 290 286 285 282 280
246 256 260 262 262 260 260 262 261 259 259 261 262 262 264 265 266 267 268 270 271 272 273 276 279 281 285 290 289 287 288 288 288 289 291 291 290 285 280 279 280 279 278